MEASAT 3D (52904 NORAD) Tracking and Keplerian Element Data

This shows tracking and keplerian element data for the satellite.

Feedback or suggestion? Click here.




ElementValue
Catalog52904
NameMEASAT 3D
Epoch Orbit100
Epoch Day267.32127534
Epoch Year2022
RAAN323.8261
Inclination0.0513
Eccentricity0.0002179
Argument of Perigee280.9293
Mean Anonmoly325.5352
Mean Motion1.00270428
Decay Rate-2.43E-06
L11 52904U 22067B 22267.32127534 -.00000243 00000+0 00000+0 0 9991
L22 52904 0.0513 323.8261 0002179 280.9293 325.5352 1.00270428 1008

Live tracking and technical data element details for MEASAT 3D (NORAD 52904). MEASAT 3D can be tracked NOW for your location showing map with azimuth and elevation plus other details from your city location.

Track the satellite on the map from your city or location and see movement details for azimuth, elevation, latitude, longitude, range, height, and movement on the map or in text.







IsCatalogInMostPopularTable: catalog: 52904, numindb: 8
Update: records affected: 1



GetName: 52904 MEASAT 3D

Hit Count: updated at: Thu, 06 Oct 2022 05:28:43 GMT